Wind_Speed
2 4 5 5 2 6 7 10 10 5 2 6 5 2 10 13 6 12 15 16 16 17 17 17 17 17 17 17 16 16 14 14 16 13 12 9 8 8 7 7 9 5 3 4
4 3 3 4 5 3 6 7 6 4 3 3 6 7 9 8 12 10 15 17 18 15 13 16 19 17 18 18 18 17 15 17 16 15 16 12 11 9 7 7 7 6 4 3
6 2 6 4 7 6 5 4 8 5 7 6 0 4 5 10 10 7 10 18 19 18 17 16 20 20 18 20 20 19 17 19 16 14 16 16 14 10 8 8 7 7 6 4
2 3 5 5 7 7 7 6 9 10 4 3 2 3 4 9 15 14 13 15 19 19 17 15 20 21 22 21 20 20 19 20 18 17 15 18 16 12 11 9 8 8 8 6
1 4 5 5 6 10 1 10 9 6 5 4 2 2 1 7 12 18 19 13 20 20 18 19 22 24 23 19 20 21 21 21 19 19 18 15 14 13 11 10 10 10 9 7
4 0 3 1 5 9 14 13 8 4 2 2 2 1 5 7 18 19 17 16 20 20 19 20 19 19 20 18 19 20 22 24 23 21 20 19 19 16 13 13 11 10 8 8
2 1 1 4 11 10 6 11 2 2 2 1 4 4 10 8 11 15 22 25 19 18 17 16 18 21 21 22 21 20 22 21 25 23 20 18 20 19 18 17 15 12 11 10
2 4 9 8 3 6 13 7 4 4 4 3 4 5 3 5 8 13 17 25 13 17 16 18 24 25 25 24 23 22 22 22 23 22 23 21 20 16 16 16 15 14 12 12
1 1 2 6 5 10 6 8 2 3 2 2 4 4 3 3 14 7 12 19 20 18 19 20 24 25 24 23 25 25 24 23 23 23 22 22 21 20 17 18 18 14 15 12
1 3 3 3 6 6 7 10 4 3 4 4 2 4 5 9 11 7 12 16 22 20 20 19 22 26 27 26 24 23 23 24 24 22 21 19 19 22 21 19 18 17 18 18
1 3 0 4 2 6 6 5 3 2 2 2 2 4 2 8 12 6 7 15 18 21 19 15 22 27 28 24 24 23 22 22 23 23 21 20 18 19 19 18 18 17 16 18
2 1 4 2 2 2 2 2 6 7 6 1 2 2 4 5 6 2 8 10 13 18 21 18 24 25 25 25 24 25 23 23 23 23 22 21 18 18 16 18 19 18 16 15
2 0 3 3 4 4 1 2 2 1 1 6 5 3 3 5 5 6 5 3 5 15 20 20 19 23 23 27 26 26 25 25 23 22 21 20 20 19 19 17 16 16 16 17
2 1 3 6 4 4 3 1 2 3 3 4 6 6 3 2 5 7 7 8 5 8 15 19 18 19 23 25 28 27 25 24 23 22 22 22 23 22 20 21 20 17 15 16
1 4 3 6 8 6 5 3 2 4 2 4 1 5 2 2 5 9 8 10 6 5 11 12 16 16 20 20 23 22 22 24 22 21 22 23 21 22 22 21 19 18 16 15
1 1 1 5 4 5 5 4 5 2 3 4 4 6 0 3 3 6 8 10 6 1 7 10 11 10 14 18 23 21 20 21 22 25 21 19 19 20 21 21 20 17 15 15
0 1 2 4 2 3 7 7 6 3 3 3 5 0 3 2 3 4 6 7 7 3 4 4 7 12 15 18 17 16 19 17 17 21 18 17 16 16 16 15 16 15 14 13
2 2 1 4 2 7 2 1 3 7 3 7 5 6 4 3 6 6 6 6 6 6 5 4 6 7 7 9 11 12 12 11 12 12 14 16 17 14 15 13 13 12 10 7
1 2 2 3 4 4 3 6 6 6 3 7 5 7 9 6 3 2 5 5 5 5 5 5 6 6 7 8 9 9 10 11 11 12 11 9 11 12 10 13 10 10 10 9
4 1 4 2 4 5 1 2 2 3 6 13 10 10 10 7 3 2 4 5 6 8 8 8 10 14 14 12 11 14 14 15 12 13 11 9 9 10 10 11 12 13 12 10
2 1 6 6 6 5 2 2 1 6 2 4 10 8 10 4 2 5 4 5 6 7 8 7 10 13 12 10 10 11 10 9 6 7 7 7 8 10 15 17 16 14 13 12
3 3 2 1 4 8 2 4 5 4 5 2 4 5 7 10 7 6 7 5 8 9 9 10 13 13 9 7 7 8 9 7 9 13 12 8 6 7 7 6 5 12 13 10
3 3 0 5 2 1 4 8 4 1 3 3 6 8 13 11 10 8 7 8 10 9 9 12 15 15 12 10 12 14 10 12 12 13 11 9 8 10 10 9 8 6 6 8
6 4 3 2 2 8 6 6 7 3 6 8 9 11 10 10 10 10 8 8 12 11 9 11 14 14 15 15 14 13 13 13 15 15 12 12 13 12 12 12 10 11 8 7
1 9 5 5 8 5 7 6 3 6 10 13 12 12 12 12 9 8 7 8 12 12 10 10 12 14 13 14 14 15 15 11 15 15 14 12 13 12 13 14 11 8 7 6
7 6 5 4 6 2 6 7 8 9 11 13 13 11 12 13 12 12 8 9 12 12 10 10 12 13 13 13 15 16 14 14 16 18 15 15 15 14 14 15 14 11 9 7
Wind_Direction
74 199 184 157 128 110 106 112 110 111 131 73 5 286 211 214 189 225 203 198 204 207 205 199 198 194 188 189 191 192 191 195 190 192 186 178 176 174 172 169 160 170 176 165
155 185 166 159 147 144 128 120 109 130 152 112 39 305 207 196 196 217 217 208 213 205 199 199 194 195 191 190 193 194 197 199 193 197 191 185 181 188 184 173 174 187 176 166
176 116 160 167 167 190 191 212 176 139 145 95 63 321 208 199 206 248 257 219 216 209 206 198 196 199 195 192 191 194 195 196 191 189 183 187 183 185 189 195 196 201 186 176
170 141 172 189 205 203 216 200 170 135 138 46 349 299 235 176 203 227 256 224 218 215 217 205 200 199 202 195 192 197 199 200 198 195 189 185 182 183 192 191 195 190 194 198
149 184 178 203 222 201 153 143 145 136 96 135 61 290 208 189 208 219 233 239 223 214 211 206 205 202 202 196 196 197 204 207 206 207 206 199 196 195 186 184 184 193 200 207
264 219 242 325 48 176 135 111 92 74 56 128 134 26 264 189 216 218 225 224 225 217 209 213 207 201 199 198 196 195 198 209 211 211 209 210 204 195 182 187 189 193 201 208
305 148 98 147 104 135 180 179 145 161 198 272 149 151 249 218 212 207 205 218 215 213 205 200 197 196 198 195 196 199 198 204 206 209 209 208 205 206 206 205 199 197 204 209
335 185 176 175 226 189 188 220 185 212 185 184 179 240 311 354 218 212 211 203 198 207 205 200 201 199 202 198 195 198 200 203 203 208 210 210 212 211 214 216 211 211 213 213
306 230 185 206 159 160 177 218 109 113 155 220 199 227 311 263 251 197 200 191 196 204 205 205 204 203 203 203 203 201 201 202 203 209 213 215 217 218 216 215 215 220 229 227
137 286 173 132 166 184 231 157 178 222 203 228 224 269 266 182 256 166 198 202 203 205 206 207 205 205 204 208 205 205 207 206 206 205 212 218 221 223 222 220 222 228 234 236
68 283 167 186 215 194 164 187 215 258 249 249 168 237 339 282 308 240 198 193 215 211 204 198 203 205 205 202 202 203 204 206 208 206 210 214 220 222 225 225 231 239 243 234
37 247 274 337 354 273 305 235 226 240 201 227 319 264 330 318 334 332 165 199 209 210 204 198 202 201 200 201 200 201 201 205 210 210 210 215 218 218 224 228 230 233 237 238
170 93 272 182 159 157 181 98 162 184 300 215 233 254 321 15 23 44 20 336 237 218 204 196 194 194 198 202 201 202 201 204 205 206 210 213 213 211 214 223 228 238 241 234
171 173 274 285 357 337 229 195 113 192 213 212 221 268 211 29 13 16 10 343 325 207 196 194 186 191 194 198 201 203 208 207 202 202 205 209 213 214 215 218 221 233 241 241
328 277 244 279 269 251 274 271 251 208 164 240 179 266 264 301 347 349 351 349 333 177 182 193 198 193 187 194 204 207 209 207 204 204 208 214 216 214 217 221 219 225 236 243
38 310 267 277 283 206 243 276 272 246 193 206 263 270 194 48 3 351 357 350 343 259 196 200 187 175 192 190 200 203 211 211 211 212 216 217 216 219 218 216 221 225 234 243
241 201 269 279 1 220 250 225 227 276 232 261 213 266 148 120 76 12 357 349 353 46 102 143 215 190 191 201 199 201 209 210 215 218 222 220 216 217 219 216 215 222 231 237
164 161 197 284 261 240 51 197 259 247 229 240 255 152 157 117 88 56 20 354 358 14 44 92 123 128 145 166 165 172 182 185 199 207 208 209 202 195 201 205 207 205 211 211
304 185 225 253 239 312 236 201 201 222 215 199 198 150 146 131 140 85 26 15 5 6 8 50 78 108 125 129 145 158 167 173 165 152 144 128 141 150 181 187 196 208 193 200
78 51 248 171 249 267 353 137 122 164 246 186 191 169 158 159 235 116 23 16 16 20 24 47 88 99 100 109 128 132 123 127 127 156 169 185 225 197 204 224 205 217 223 226
200 192 239 232 250 263 279 124 171 232 57 186 194 183 165 172 14 109 88 50 31 36 41 72 86 77 66 74 96 101 107 111 132 126 176 176 234 226 212 207 199 210 216 201
215 198 217 187 237 256 152 153 229 46 54 106 158 179 148 125 132 113 100 86 59 49 55 80 86 72 67 69 95 110 93 102 128 133 125 137 151 157 164 180 169 177 180 170
231 226 245 223 289 147 241 261 268 351 218 171 121 130 134 145 136 129 119 106 89 76 74 83 85 85 85 100 113 100 96 123 129 128 134 145 159 154 149 131 135 126 132 152
200 176 226 262 194 247 253 245 253 204 212 161 141 143 141 139 134 127 125 117 104 95 85 95 94 87 80 84 94 109 120 131 133 122 119 129 140 139 136 130 136 135 131 141
65 162 186 249 262 267 248 233 228 155 150 140 137 143 138 138 133 126 121 118 105 98 90 93 95 92 84 86 85 87 95 114 112 112 116 116 110 115 113 114 109 108 125 144
187 178 187 252 204 192 162 188 176 134 139 142 140 140 143 142 138 143 128 117 103 100 93 87 88 89 83 83 85 86 89 95 104 104 104 106 108 110 106 106 107 99 92 93
Height
791 793 799 798 795 795 798 803 816 824 818 825 830 828 822 820 821 819 816 815 817 817 821 827 832 837 841 845 848 850 854 856 859 861 865 866 868 869 871 872 874 876 876 877
795 801 793 793 796 798 799 807 817 820 816 816 827 827 816 821 820 818 813 813 812 816 820 826 830 833 838 842 846 849 853 855 858 860 862 865 867 869 871 873 875 876 877 877
796 794 790 792 797 801 802 805 812 808 815 817 817 829 821 818 818 820 814 809 808 811 815 821 826 830 835 839 843 847 851 853 856 859 861 863 866 869 871 873 875 876 877 878
793 791 793 796 797 794 805 794 801 809 812 828 816 842 819 817 820 818 815 806 805 807 812 817 822 827 829 836 841 845 849 853 855 858 860 862 865 868 870 872 874 876 877 878
796 793 795 798 793 790 799 793 802 807 811 819 825 829 809 809 821 816 808 806 800 802 807 811 816 821 827 833 838 843 847 851 854 856 859 863 865 868 870 872 874 875 877 878
790 785 787 787 791 788 795 802 808 810 815 831 824 827 814 814 804 800 806 801 798 797 803 807 815 821 825 831 836 841 845 848 852 855 857 859 862 866 869 872 874 875 877 878
793 791 787 786 796 795 796 799 827 833 834 835 815 831 804 783 784 783 793 792 792 793 799 806 812 816 821 826 832 837 842 845 849 853 856 858 860 863 865 868 872 874 876 877
804 808 791 783 787 793 797 794 809 833 842 830 815 821 792 776 768 770 772 781 788 790 794 801 806 810 815 822 828 834 838 842 846 850 853 856 859 861 863 866 869 871 873 874
803 799 782 782 782 782 802 806 789 808 816 825 811 799 778 769 769 775 772 777 782 786 790 795 801 806 812 818 823 827 833 837 842 847 851 854 857 859 861 863 866 868 870 871
799 804 783 781 779 782 785 778 805 804 827 831 817 808 789 776 766 776 772 778 774 779 785 790 796 801 807 812 819 826 830 833 838 843 847 851 853 856 859 861 863 865 866 868
795 800 787 785 785 783 788 788 789 786 797 808 816 801 784 778 774 774 774 773 773 776 780 786 790 796 801 809 815 820 826 831 835 839 844 847 850 853 856 858 860 862 863 864
798 797 799 787 783 784 782 783 782 792 802 804 799 791 781 780 777 769 773 768 767 769 775 780 786 792 798 804 811 815 821 825 829 834 838 841 845 849 853 855 857 859 859 860
794 803 804 796 786 783 786 788 789 789 788 800 801 785 777 776 776 775 772 770 769 766 769 775 783 789 793 799 805 810 815 819 825 829 834 838 841 844 847 850 853 855 856 857
792 802 803 804 800 795 792 789 790 785 792 789 787 784 785 779 782 779 779 776 771 768 768 771 778 784 788 794 799 805 810 815 820 825 830 833 836 839 842 844 847 850 851 852
793 802 805 797 796 794 793 790 787 786 790 796 796 794 784 783 785 784 780 779 774 772 773 774 776 781 785 792 798 803 807 811 816 820 825 828 832 835 838 841 843 846 848 849
800 804 806 801 794 791 794 793 790 787 791 789 793 789 782 785 785 789 785 785 780 774 773 776 778 783 786 790 794 799 804 807 813 816 820 825 829 832 834 836 839 842 843 845
801 802 806 806 803 803 804 790 791 788 789 783 787 781 781 787 788 792 791 789 786 779 778 778 779 780 786 790 793 797 803 807 811 814 818 822 826 830 833 836 837 839 841 842
803 806 808 804 806 817 793 790 790 789 786 787 784 783 785 788 792 793 793 792 790 786 783 782 782 783 786 789 791 796 800 804 809 814 816 819 821 826 829 833 835 837 839 840
804 804 806 810 809 800 791 789 792 790 783 783 783 782 785 789 790 795 795 793 792 790 787 785 784 785 788 789 792 795 799 802 807 811 817 821 822 822 826 828 834 836 837 839
807 807 802 814 813 812 786 784 782 783 791 775 780 781 785 789 794 792 795 795 793 791 790 788 788 789 791 793 795 798 801 804 809 810 811 816 822 821 823 824 825 831 835 836
804 809 807 804 806 793 786 784 784 800 791 778 779 780 785 789 793 796 797 797 797 794 793 792 792 793 794 797 799 802 806 809 811 810 816 816 819 816 821 821 824 829 831 833
801 805 806 811 808 807 785 787 793 786 785 782 782 783 786 793 797 798 798 799 797 797 797 795 796 797 800 802 803 806 808 809 811 814 816 821 821 821 824 822 822 825 827 830
807 795 797 802 792 788 786 784 779 784 782 783 783 785 787 795 795 798 800 800 800 800 800 801 801 803 805 806 806 808 809 813 816 818 820 823 824 824 825 822 824 827 831 832
796 799 795 798 787 787 784 782 782 781 779 780 783 788 789 793 796 799 802 802 801 803 806 805 805 807 808 809 811 811 812 815 816 817 820 821 824 824 825 824 828 829 831 836
788 795 791 791 783 783 781 780 778 778 779 779 783 787 791 794 798 800 803 805 802 804 808 810 810 812 813 813 814 815 815 816 817 820 821 824 825 828 827 828 833 834 835 837
783 780 781 778 770 773 775 775 775 773 775 780 784 790 792 794 798 804 806 808 805 807 811 813 814 814 816 817 816 816 818 820 821 822 826 828 830 832 831 832 834 836 837 837